Location: Kelshall
(52.0000°N, 0.0500°W)
Time: 12:03:18
(UTC+00:00)

NOSS 2-2 (C) - Pass Details

Date: 18 September 2020
Orbit: 468 x 1740 km, 63.3° (Epoch: 19 October)

Event Time Altitude Azimuth Distance (km) Brightness Sun altitude
Rises 20:04:49 0° 224° (SW) 2,499 6.9 -18.2°
Reaches altitude 10° 20:06:49 10° 224° (SW) 1,640 5.9 -18.5°
Maximum altitude 20:10:21 90° 158° (SSE) 516 3.1 -19.0°
Drops below altitude 10° 20:14:30 10° 46° (NE) 1,918 5.9 -19.5°
Enters shadow 20:15:46 - 46° (NE) 2,454 6.5 -19.7°
